• Processing (Info)

  • MPEC 2019-N05 : 2019 MH2

    The following Minor Planet Electronic Circular may be linked-to from your own Web pages, but must not otherwise be redistributed electronically.

    A form allowing access to any MPEC is at the bottom of this page.


    Read MPEC 2019-N04 Read MPEC 2019-N06


    M.P.E.C. 2019-N05                                Issued 2019 July 1, 16:06 UT  
    
         The Minor Planet Electronic Circulars contain information on unusual
             minor planets and routine data on comets.  They are published
        on behalf of Division F of the International Astronomical Union by the
              Minor Planet Center, Smithsonian Astrophysical Observatory,
                              Cambridge, MA 02138, U.S.A.
    
                 Prepared using the Tamkin Foundation Computer Network
    
                                  MPC@CFA.HARVARD.EDU
                URL https://www.minorplanetcenter.net/    ISSN 1523-6714
    
                                    2019 MH2                                 
    
    Observations:
         K19M02H* C2019 06 28.40306 22 13 49.39 +05 24 25.9          20.9 GVEN005G96
         K19M02H  C2019 06 28.40821 22 13 49.77 +05 25 20.3          21.2 GVEN005G96
         K19M02H  C2019 06 28.41335 22 13 50.15 +05 26 12.6          21.4 GVEN005G96
         K19M02H  C2019 06 28.41851 22 13 50.49 +05 27 07.8          20.9 GVEN005G96
         K19M02H  C2019 06 28.44122 22 13 52.10 +05 31 04.1          20.7 GVEN005I52
         K19M02H  C2019 06 28.44289 22 13 52.22 +05 31 21.3          20.6 GVEN005I52
         K19M02H  C2019 06 28.44456 22 13 52.31 +05 31 38.8          20.9 GVEN005I52
         K19M02H  C2019 06 28.44623 22 13 52.43 +05 31 55.9          21.3 GVEN005I52
         K19M02H  C2019 06 28.58037522 14 03.675+05 55 26.04         20.5 GVEN005F51
         K19M02H  C2019 06 28.58922022 14 04.293+05 56 59.15         20.8 GVEN005F51
         K19M02H KC2019 06 29.01571 22 14 41.35 +07 11 25.9                VEN005104
         K19M02H KC2019 06 29.02134 22 14 41.79 +07 12 26.0          20.6 GVEN005104
         K19M02H KC2019 06 29.02159722 14 41.88 +07 12 23.6          20.9 GVEN005J95
         K19M02H KC2019 06 29.02698 22 14 42.22 +07 13 25.9          20.6 GVEN005104
         K19M02H KC2019 06 29.04429822 14 43.52 +07 16 23.4          21.0 GVEN005J95
         K19M02H  C2019 06 29.31522 22 15 07.10 +08 04 22.0                VEN005I52
         K19M02H  C2019 06 29.31778 22 15 07.29 +08 04 49.2                VEN005I52
         K19M02H  C2019 06 29.32034 22 15 07.44 +08 05 16.5          19.8 GVEN005I52
         K19M02H KC2019 06 29.32192222 15 06.75 +08 05 30.3          21.1 VuEN005H21
         K19M02H  C2019 06 29.32290 22 15 07.62 +08 05 43.7          20.3 GVEN005I52
         K19M02H KC2019 06 29.32497822 15 06.96 +08 06 02.8          21.3 VuEN005H21
         K19M02H KC2019 06 29.32844822 15 07.20 +08 06 40.2          21.2 VuEN005H21
         K19M02H  C2019 06 29.50790322 15 22.566+08 38 39.01         20.8 GVEN005F51
         K19M02H  C2019 06 29.54196022 15 24.913+08 44 41.90         20.4 GVEN005F51
         K19M02H pC2019 07 01.05141022 17 29.57 +13 14 58.3          21.4 GVEN005L01
         K19M02H pC2019 07 01.05259622 17 29.66 +13 15 11.9          21.2 GVEN005L01
         K19M02H pC2019 07 01.05378222 17 29.78 +13 15 26.3          21.4 GVEN005L01
         K19M02H  C2019 07 01.30840 22 17 51.76 +14 01 29.6          21.8 GVEN005I52
         K19M02H  C2019 07 01.31007 22 17 51.90 +14 01 47.6          21.0 GVEN005I52
         K19M02H  C2019 07 01.31325 22 17 52.16 +14 02 22.5          21.0 GVEN005I52
         K19M02H  C2019 07 01.31492 22 17 52.25 +14 02 40.7          20.9 GVEN005I52
    
    Observer details:
    104 San Marcello Pistoiese.  Observers P. Bacci, M. Maestripieri.  
        Measurers P. Bacci, L. Tesi, G. Fagioli.  0.60-m reflector + CCD.
    F51 Pan-STARRS 1, Haleakala.  Observers J. Bulger, K. Chambers, T. Lowe,
        E. Magnier, A. Schultz, M. Willman.  Measurers S. Chastel, M. Huber,
        Y. Ramanjooloo, R. Wainscoat, R. Weryk.  1.8-m Ritchey-Chretien + CCD.
    G96 Mt. Lemmon Survey.  Observer H. Groeller.  Measurers B. M. Africano,
        E. J. Christensen, G. A. Farneth, D. C. Fuls, A. R. Gibbs, A. D. Grauer,
        H. Groeller, R. A. Kowalski, S. M. Larson, G. J. Leonard, T. A. Pruyne,
        D. Rankin, R. L. Seaman, F. C. Shelly.  1.5-m reflector + 10K CCD.
    H21 Astronomical Research Observatory, Westfield.  Observer R. Holmes.  
        Measurers S. Foglia, L. Buzzi, T. Linder, R. Holmes.  
        0.81-m f/4.0 astrograph + CCD.
    I52 Steward Observatory, Mt. Lemmon Station.  Observers G. J. Leonard,
        H. Groeller.  Measurers B. M. Africano, E. J. Christensen, G. A. Farneth,
        D. C. Fuls, A. R. Gibbs, A. D. Grauer, H. Groeller, R. A. Kowalski,
        S. M. Larson, G. J. Leonard, T. A. Pruyne, D. Rankin, R. L. Seaman,
        F. C. Shelly.  1.0-m reflector + CCD.
    J95 Great Shefford.  Observer P. Birtwhistle.  
        0.41-m f/6.3 Schmidt-Cassegrain + CCD.
    L01 Visnjan Observatory, Tican.  Observer K. Korlevic.  
        1.0-m f/2.9 reflector + CCD.
    
    Orbital elements:
    2019 MH2                                                 Earth MOID = 0.1277 AU
    Epoch 2019 Apr. 27.0 TT = JDT 2458600.5                 MPC
    M 311.81991              (2000.0)            P               Q
    n   0.44841688     Peri.   52.70025     +0.79181513     +0.37925755
    a   1.6904983      Node   280.26131     -0.58744755     +0.68741608
    e   0.3890237      Incl.   29.11225     +0.16713521     +0.61937294
    P   2.20           H   22.2           G   0.15           U   8
    Residuals in seconds of arc
    190628 G96  0.1-  0.1+    190629 104  0.1-  0.2+    190629 F51  0.1+  0.1+
    190628 G96  0.1+  0.8+    190629 J95  0.5-  0.5-    190629 F51  0.3+  0.1-
    190628 G96  0.3+  0.6-    190629 104  0.1+  0.5+    190701 L01 (0.0   1.3+)
    190628 G96  0.0   0.8+    190629 J95 (1.9-  0.7-)   190701 L01 (0.1+  2.0+)
    190628 I52  0.1+  0.0     190629 I52  0.5+  0.1+    190701 L01 (0.6+  3.5+)
    190628 I52  0.2+  0.2-    190629 I52  0.5+  0.0     190701 I52  0.3-  0.0
    190628 I52  0.2-  0.2-    190629 I52  0.1-  0.1+    190701 I52  0.1-  0.2-
    190628 I52  0.2-  0.5-    190629 H21  0.2-  0.2+    190701 I52  0.4+  0.1+
    190628 F51  0.0   0.2-    190629 I52  0.3-  0.1+    190701 I52  0.1-  0.1+
    190628 F51  0.2+  0.3+    190629 H21  0.3-  0.2+
    190629 104  0.4-  0.4-    190629 H21  0.5-  0.8+
    
    Ephemeris:
    2019 MH2                 a,e,i = 1.69, 0.39, 29                  q = 1.0329
    Date    TT    R. A. (2000) Decl.     Delta      r    Elong.  Phase     V
    2019 06 01    21 25 31.4 -41 18 33   0.4237  1.2626   116.7    45.8    22.6
    ...
    2019 06 16    21 54 36.5 -23 32 05   0.2841  1.1876   121.1    47.1    21.6
    ...
    2019 06 24    22 07 24.4 -06 35 28   0.2323  1.1514   120.4    49.6    21.2
    ...
    2019 06 30    22 16 02.0 +10 06 08   0.2120  1.1265   116.2    54.1    21.1
    2019 07 01    22 17 24.4 +13 05 47   0.2105  1.1225   115.2    55.1    21.1
    2019 07 02    22 18 45.9 +16 06 49   0.2096  1.1186   114.0    56.1    21.1
    ...
    2019 07 08    22 26 42.8 +33 47 34   0.2160  1.0969   106.2    62.9    21.3
    ...
    2019 07 16    22 37 31.5 +53 02 47   0.2501  1.0721    96.1    70.5    21.8
    ...
    2019 07 31    23 05 29.8 +74 14 15   0.3509  1.0411    84.4    76.0    22.7
    
    A. U. Tomatic                (C) Copyright 2019 MPC           M.P.E.C. 2019-N05
    


    Read MPEC 2019-N04 Read MPEC 2019-N06


    MPEC number:

    Enter an MPEC number in one of the following forms:

    • 1997-B01 (the full form)
    • J97B01 (the packed version of the full form)
    • B01 (the abbreviated form)